Year,Month,Day,Hour,Minute,Value (Times are PST for barometer in hPa)
2022,04,04,00,00,993.63
2022,04,04,00,01,993.53
2022,04,04,00,02,993.53
2022,04,04,00,03,993.47
2022,04,04,00,04,993.47
2022,04,04,00,05,993.40
2022,04,04,00,06,993.49
2022,04,04,00,07,993.36
2022,04,04,00,08,993.40
2022,04,04,00,09,993.36
2022,04,04,00,10,993.30
2022,04,04,00,11,993.23
2022,04,04,00,12,993.16
2022,04,04,00,13,993.23
2022,04,04,00,14,993.33
2022,04,04,00,15,993.23
2022,04,04,00,16,993.09
2022,04,04,00,17,993.03
2022,04,04,00,18,992.90
2022,04,04,00,19,993.03
2022,04,04,00,20,992.89
2022,04,04,00,21,992.86
2022,04,04,00,22,992.96
2022,04,04,00,23,992.98
2022,04,04,00,24,992.70
2022,04,04,00,25,992.82
2022,04,04,00,26,992.82
2022,04,04,00,27,992.82
2022,04,04,00,28,992.72
2022,04,04,00,29,992.69
2022,04,04,00,30,992.62
2022,04,04,00,31,992.65
2022,04,04,00,32,992.62
2022,04,04,00,33,992.58
2022,04,04,00,34,992.58
2022,04,04,00,35,992.48
2022,04,04,00,36,992.45
2022,04,04,00,37,992.42
2022,04,04,00,38,992.42
2022,04,04,00,39,992.38
2022,04,04,00,40,992.42
2022,04,04,00,41,992.31
2022,04,04,00,42,992.38
2022,04,04,00,43,992.31
2022,04,04,00,44,992.28
2022,04,04,00,45,992.28
2022,04,04,00,46,992.25
2022,04,04,00,47,992.08
2022,04,04,00,48,992.18
2022,04,04,00,49,992.14
2022,04,04,00,50,992.04
2022,04,04,00,51,992.08
2022,04,04,00,52,992.04
2022,04,04,00,53,991.98
2022,04,04,00,54,992.04
2022,04,04,00,55,991.98
2022,04,04,00,56,991.98
2022,04,04,00,57,992.01
2022,04,04,00,58,991.91
2022,04,04,00,59,991.91
2022,04,04,01,00,991.87
2022,04,04,01,01,991.91
2022,04,04,01,02,991.77
2022,04,04,01,03,991.91
2022,04,04,01,04,991.74
2022,04,04,01,05,991.70
2022,04,04,01,06,991.80
2022,04,04,01,07,991.65
2022,04,04,01,08,991.77
2022,04,04,01,09,991.64
2022,04,04,01,10,991.64
2022,04,04,01,11,991.57
2022,04,04,01,12,991.53
2022,04,04,01,13,991.57
2022,04,04,01,14,991.47
2022,04,04,01,15,991.53
2022,04,04,01,16,991.53
2022,04,04,01,17,991.53
2022,04,04,01,18,991.53
2022,04,04,01,19,991.47
2022,04,04,01,20,991.40
2022,04,04,01,21,991.47
2022,04,04,01,22,991.47
2022,04,04,01,23,991.33
2022,04,04,01,24,991.40
2022,04,04,01,25,991.33
2022,04,04,01,26,991.40
2022,04,04,01,27,991.37
2022,04,04,01,28,991.43
2022,04,04,01,29,991.47
2022,04,04,01,30,991.43
2022,04,04,01,31,991.43
2022,04,04,01,32,991.37
2022,04,04,01,33,991.30
2022,04,04,01,34,991.43
2022,04,04,01,35,991.40
2022,04,04,01,36,991.33
2022,04,04,01,37,991.30
2022,04,04,01,38,991.26
2022,04,04,01,39,991.20
2022,04,04,01,40,991.30
2022,04,04,01,41,991.26
2022,04,04,01,42,991.26
2022,04,04,01,43,991.26
2022,04,04,01,44,991.16
2022,04,04,01,45,991.23
2022,04,04,01,46,991.23
2022,04,04,01,47,991.16
2022,04,04,01,48,991.16
2022,04,04,01,49,991.26
2022,04,04,01,50,991.20
2022,04,04,01,51,991.20
2022,04,04,01,52,991.13
2022,04,04,01,53,991.20
2022,04,04,01,54,991.16
2022,04,04,01,55,991.13
2022,04,04,01,56,991.13
2022,04,04,01,57,991.13
2022,04,04,01,58,991.06
2022,04,04,01,59,990.99
2022,04,04,02,00,991.16
2022,04,04,02,01,991.13
2022,04,04,02,02,991.09
2022,04,04,02,03,991.09
2022,04,04,02,04,991.13
2022,04,04,02,05,991.13
2022,04,04,02,06,991.13
2022,04,04,02,07,991.13
2022,04,04,02,08,991.03
2022,04,04,02,09,991.16
2022,04,04,02,10,991.20
2022,04,04,02,11,991.09
2022,04,04,02,12,991.20
2022,04,04,02,13,991.23
2022,04,04,02,14,991.23
2022,04,04,02,15,991.30
2022,04,04,02,16,991.26
2022,04,04,02,17,991.26
2022,04,04,02,18,991.30
2022,04,04,02,19,991.33
2022,04,04,02,20,991.33
2022,04,04,02,21,991.30
2022,04,04,02,22,991.33
2022,04,04,02,23,991.26
2022,04,04,02,24,991.26
2022,04,04,02,25,991.16
2022,04,04,02,26,991.20
2022,04,04,02,27,991.26
2022,04,04,02,28,991.26
2022,04,04,02,29,991.23
2022,04,04,02,30,991.20
2022,04,04,02,31,991.26
2022,04,04,02,32,991.30
2022,04,04,02,33,991.26
2022,04,04,02,34,991.20
2022,04,04,02,35,991.23
2022,04,04,02,36,991.20
2022,04,04,02,37,991.23
2022,04,04,02,38,991.23
2022,04,04,02,39,991.13
2022,04,04,02,40,991.13
2022,04,04,02,41,991.13
2022,04,04,02,42,991.20
2022,04,04,02,43,991.13
2022,04,04,02,44,991.23
2022,04,04,02,45,991.13
2022,04,04,02,46,991.23
2022,04,04,02,47,991.06
2022,04,04,02,48,991.06
2022,04,04,02,49,991.06
2022,04,04,02,50,991.06
2022,04,04,02,51,991.06
2022,04,04,02,52,991.03
2022,04,04,02,53,990.97
2022,04,04,02,54,991.12
2022,04,04,02,55,990.96
2022,04,04,02,56,990.87
2022,04,04,02,57,991.03
2022,04,04,02,58,991.06
2022,04,04,02,59,990.96
2022,04,04,03,00,990.96
2022,04,04,03,01,990.96
2022,04,04,03,02,990.96
2022,04,04,03,03,990.93
2022,04,04,03,04,990.89
2022,04,04,03,05,990.99
2022,04,04,03,06,990.99
2022,04,04,03,07,990.96
2022,04,04,03,08,990.93
2022,04,04,03,09,991.09
2022,04,04,03,10,991.03
2022,04,04,03,11,991.06
2022,04,04,03,12,991.13
2022,04,04,03,13,991.13
2022,04,04,03,14,991.20
2022,04,04,03,15,991.09
2022,04,04,03,16,991.13
2022,04,04,03,17,991.13
2022,04,04,03,18,991.06
2022,04,04,03,19,991.06
2022,04,04,03,20,991.06
2022,04,04,03,21,990.87
2022,04,04,03,22,991.12
2022,04,04,03,23,990.96
2022,04,04,03,24,990.96
2022,04,04,03,25,990.86
2022,04,04,03,26,990.89
2022,04,04,03,27,990.82
2022,04,04,03,28,990.86
2022,04,04,03,29,990.82
2022,04,04,03,30,990.76
2022,04,04,03,31,990.72
2022,04,04,03,32,990.62
2022,04,04,03,33,990.72
2022,04,04,03,34,990.69
2022,04,04,03,35,990.69
2022,04,04,03,36,990.59
2022,04,04,03,37,990.59
2022,04,04,03,38,990.56
2022,04,04,03,39,990.72
2022,04,04,03,40,990.65
2022,04,04,03,41,990.69
2022,04,04,03,42,990.69
2022,04,04,03,43,990.69
2022,04,04,03,44,990.60
2022,04,04,03,45,990.76
2022,04,04,03,46,990.65
2022,04,04,03,47,990.72
2022,04,04,03,48,990.69
2022,04,04,03,49,990.69
2022,04,04,03,50,990.65
2022,04,04,03,51,990.62
2022,04,04,03,52,990.59
2022,04,04,03,53,990.59
2022,04,04,03,54,990.52
2022,04,04,03,55,990.52
2022,04,04,03,56,990.62
2022,04,04,03,57,990.72
2022,04,04,03,58,990.72
2022,04,04,03,59,990.69
2022,04,04,04,00,990.69
2022,04,04,04,01,990.62
2022,04,04,04,02,990.62
2022,04,04,04,03,990.69
2022,04,04,04,04,990.62
2022,04,04,04,05,990.69
2022,04,04,04,06,990.72
2022,04,04,04,07,990.69
2022,04,04,04,08,990.69
2022,04,04,04,09,990.69
2022,04,04,04,10,990.65
2022,04,04,04,11,990.69
2022,04,04,04,12,990.62
2022,04,04,04,13,990.65
2022,04,04,04,14,990.55
2022,04,04,04,15,990.49
2022,04,04,04,16,990.49
2022,04,04,04,17,990.62
2022,04,04,04,18,990.59
2022,04,04,04,19,990.59
2022,04,04,04,20,990.55
2022,04,04,04,21,990.59
2022,04,04,04,22,990.59
2022,04,04,04,23,990.69
2022,04,04,04,24,990.65
2022,04,04,04,25,990.55
2022,04,04,04,26,990.55
2022,04,04,04,27,990.65
2022,04,04,04,28,990.55
2022,04,04,04,29,990.52
2022,04,04,04,30,990.49
2022,04,04,04,31,990.62
2022,04,04,04,32,990.69
2022,04,04,04,33,990.76
2022,04,04,04,34,990.72
2022,04,04,04,35,990.76
2022,04,04,04,36,990.76
2022,04,04,04,37,990.69
2022,04,04,04,38,990.59
2022,04,04,04,39,990.52
2022,04,04,04,40,990.52
2022,04,04,04,41,990.42
2022,04,04,04,42,990.45
2022,04,04,04,43,990.45
2022,04,04,04,44,990.52
2022,04,04,04,45,990.52
2022,04,04,04,46,990.45
2022,04,04,04,47,990.45
2022,04,04,04,48,990.38
2022,04,04,04,49,990.35
2022,04,04,04,50,990.42
2022,04,04,04,51,990.32
2022,04,04,04,52,990.35
2022,04,04,04,53,990.42
2022,04,04,04,54,990.49
2022,04,04,04,55,990.49
2022,04,04,04,56,990.52
2022,04,04,04,57,990.62
2022,04,04,04,58,990.59
2022,04,04,04,59,990.55
2022,04,04,05,00,990.55
2022,04,04,05,01,990.72
2022,04,04,05,02,990.69
2022,04,04,05,03,990.65
2022,04,04,05,04,990.69
2022,04,04,05,05,990.65
2022,04,04,05,06,990.65
2022,04,04,05,07,990.65
2022,04,04,05,08,990.71
2022,04,04,05,09,990.55
2022,04,04,05,10,990.59
2022,04,04,05,11,990.52
2022,04,04,05,12,990.55
2022,04,04,05,13,990.55
2022,04,04,05,14,990.52
2022,04,04,05,15,990.58
2022,04,04,05,16,990.42
2022,04,04,05,17,990.38
2022,04,04,05,18,990.38
2022,04,04,05,19,990.42
2022,04,04,05,20,990.49
2022,04,04,05,21,990.45
2022,04,04,05,22,990.45
2022,04,04,05,23,990.55
2022,04,04,05,24,990.52
2022,04,04,05,25,990.33
2022,04,04,05,26,990.45
2022,04,04,05,27,990.52
2022,04,04,05,28,990.45
2022,04,04,05,29,990.55
2022,04,04,05,30,990.59
2022,04,04,05,31,990.55
2022,04,04,05,32,990.69
2022,04,04,05,33,990.65
2022,04,04,05,34,990.93
2022,04,04,05,35,990.82
2022,04,04,05,36,990.89
2022,04,04,05,37,990.93
2022,04,04,05,38,990.82
2022,04,04,05,39,990.69
2022,04,04,05,40,990.71
2022,04,04,05,41,990.55
2022,04,04,05,42,990.45
2022,04,04,05,43,990.49
2022,04,04,05,44,990.52
2022,04,04,05,45,990.59
2022,04,04,05,46,990.59
2022,04,04,05,47,990.76
2022,04,04,05,48,990.86
2022,04,04,05,49,990.69
2022,04,04,05,50,990.79
2022,04,04,05,51,990.69
2022,04,04,05,52,990.72
2022,04,04,05,53,990.65
2022,04,04,05,54,990.69
2022,04,04,05,55,990.73
2022,04,04,05,56,990.89
2022,04,04,05,57,990.99
2022,04,04,05,58,990.96
2022,04,04,05,59,990.96
2022,04,04,06,00,990.96
2022,04,04,06,01,990.99
2022,04,04,06,02,991.03
2022,04,04,06,03,991.03
2022,04,04,06,04,990.99
2022,04,04,06,05,991.09
2022,04,04,06,06,991.03
2022,04,04,06,07,991.07
2022,04,04,06,08,991.20
2022,04,04,06,09,991.20
2022,04,04,06,10,991.33
2022,04,04,06,11,991.21
2022,04,04,06,12,991.37
2022,04,04,06,13,991.33
2022,04,04,06,14,991.47
2022,04,04,06,15,991.37
2022,04,04,06,16,991.40
2022,04,04,06,17,991.47
2022,04,04,06,18,991.50
2022,04,04,06,19,991.40
2022,04,04,06,20,991.43
2022,04,04,06,21,991.33
2022,04,04,06,22,991.37
2022,04,04,06,23,991.30
2022,04,04,06,24,991.16
2022,04,04,06,25,991.14
2022,04,04,06,26,991.26
2022,04,04,06,27,991.20
2022,04,04,06,28,991.30
2022,04,04,06,29,991.20
2022,04,04,06,30,991.27
2022,04,04,06,31,991.43
2022,04,04,06,32,991.53
2022,04,04,06,33,991.57
2022,04,04,06,34,991.67
2022,04,04,06,35,991.67
2022,04,04,06,36,991.77
2022,04,04,06,37,991.84
2022,04,04,06,38,991.84
2022,04,04,06,39,991.98
2022,04,04,06,40,992.14
2022,04,04,06,41,992.21
2022,04,04,06,42,992.14
2022,04,04,06,43,992.04
2022,04,04,06,44,992.01
2022,04,04,06,45,992.04
2022,04,04,06,46,992.04
2022,04,04,06,47,992.04
2022,04,04,06,48,992.04
2022,04,04,06,49,991.98
2022,04,04,06,50,992.01
2022,04,04,06,51,992.04
2022,04,04,06,52,991.98
2022,04,04,06,53,992.08
2022,04,04,06,54,992.14
2022,04,04,06,55,992.21
2022,04,04,06,56,992.21
2022,04,04,06,57,992.25
2022,04,04,06,58,992.21
2022,04,04,06,59,992.25
2022,04,04,07,00,992.25
2022,04,04,07,01,992.18
2022,04,04,07,02,992.21
2022,04,04,07,03,992.18
2022,04,04,07,04,992.28
2022,04,04,07,05,992.31
2022,04,04,07,06,992.31
2022,04,04,07,07,992.31
2022,04,04,07,08,992.28
2022,04,04,07,09,992.28
2022,04,04,07,10,992.21
2022,04,04,07,11,992.14
2022,04,04,07,12,992.18
2022,04,04,07,13,992.14
2022,04,04,07,14,992.14
2022,04,04,07,15,992.25
2022,04,04,07,16,992.28
2022,04,04,07,17,992.28
2022,04,04,07,18,992.25
2022,04,04,07,19,992.18
2022,04,04,07,20,992.25
2022,04,04,07,21,992.21
2022,04,04,07,22,992.25
2022,04,04,07,23,992.21
2022,04,04,07,24,992.21
2022,04,04,07,25,992.18
2022,04,04,07,26,992.28
2022,04,04,07,27,992.08
2022,04,04,07,28,992.17
2022,04,04,07,29,992.04
2022,04,04,07,30,992.04
2022,04,04,07,31,992.08
2022,04,04,07,32,992.04
2022,04,04,07,33,992.14
2022,04,04,07,34,992.14
2022,04,04,07,35,992.04
2022,04,04,07,36,992.14
2022,04,04,07,37,992.14
2022,04,04,07,38,992.14
2022,04,04,07,39,992.18
2022,04,04,07,40,992.21
2022,04,04,07,41,992.28
2022,04,04,07,42,992.35
2022,04,04,07,43,992.28
2022,04,04,07,44,992.38
2022,04,04,07,45,992.25
2022,04,04,07,46,992.21
2022,04,04,07,47,992.18
2022,04,04,07,48,992.28
2022,04,04,07,49,992.18
2022,04,04,07,50,992.25
2022,04,04,07,51,992.28
2022,04,04,07,52,992.28
2022,04,04,07,53,992.35
2022,04,04,07,54,992.42
2022,04,04,07,55,992.45
2022,04,04,07,56,992.58
2022,04,04,07,57,992.58
2022,04,04,07,58,992.62
2022,04,04,07,59,992.62
2022,04,04,08,00,992.69
2022,04,04,08,01,992.69
2022,04,04,08,02,992.72
2022,04,04,08,03,992.86
2022,04,04,08,04,992.82
2022,04,04,08,05,992.75
2022,04,04,08,06,992.82
2022,04,04,08,07,992.79
2022,04,04,08,08,992.82
2022,04,04,08,09,992.72
2022,04,04,08,10,992.79
2022,04,04,08,11,992.82
2022,04,04,08,12,992.82
2022,04,04,08,13,992.86
2022,04,04,08,14,992.86
2022,04,04,08,15,992.82
2022,04,04,08,16,992.89
2022,04,04,08,17,992.75
2022,04,04,08,18,992.86
2022,04,04,08,19,992.82
2022,04,04,08,20,992.69
2022,04,04,08,21,992.55
2022,04,04,08,22,992.69
2022,04,04,08,23,992.75
2022,04,04,08,24,992.82
2022,04,04,08,25,993.03
2022,04,04,08,26,993.06
2022,04,04,08,27,993.09
2022,04,04,08,28,993.23
2022,04,04,08,29,993.26
2022,04,04,08,30,993.16
2022,04,04,08,31,993.13
2022,04,04,08,32,993.16
2022,04,04,08,33,993.23
2022,04,04,08,34,993.33
2022,04,04,08,35,993.36
2022,04,04,08,36,993.36
2022,04,04,08,37,993.50
2022,04,04,08,38,993.47
2022,04,04,08,39,993.53
2022,04,04,08,40,993.53
2022,04,04,08,41,993.57
2022,04,04,08,42,993.67
2022,04,04,08,43,993.74
2022,04,04,08,44,993.70
2022,04,04,08,45,993.57
2022,04,04,08,46,993.63
2022,04,04,08,47,993.67
2022,04,04,08,48,993.70
2022,04,04,08,49,993.77
2022,04,04,08,50,993.74
2022,04,04,08,51,993.74
2022,04,04,08,52,993.87
2022,04,04,08,53,993.94
2022,04,04,08,54,994.18
2022,04,04,08,55,994.08
2022,04,04,08,56,994.28
2022,04,04,08,57,994.07
2022,04,04,08,58,994.07
2022,04,04,08,59,994.14
2022,04,04,09,00,994.21
2022,04,04,09,01,994.31
2022,04,04,09,02,994.31
2022,04,04,09,03,994.31
2022,04,04,09,04,994.24
2022,04,04,09,05,994.28
2022,04,04,09,06,994.35
2022,04,04,09,07,994.31
2022,04,04,09,08,994.28
2022,04,04,09,09,994.14
2022,04,04,09,10,994.31
2022,04,04,09,11,994.51
2022,04,04,09,12,994.35
2022,04,04,09,13,994.55
2022,04,04,09,14,994.52
2022,04,04,09,15,994.65
2022,04,04,09,16,994.58
2022,04,04,09,17,994.52
2022,04,04,09,18,994.62
2022,04,04,09,19,994.62
2022,04,04,09,20,994.65
2022,04,04,09,21,994.68
2022,04,04,09,22,994.62
2022,04,04,09,23,994.65
2022,04,04,09,24,994.68
2022,04,04,09,25,994.68
2022,04,04,09,26,994.68
2022,04,04,09,27,994.62
2022,04,04,09,28,994.68
2022,04,04,09,29,994.68
2022,04,04,09,30,994.65
2022,04,04,09,31,994.75
2022,04,04,09,32,994.62
2022,04,04,09,33,994.65
2022,04,04,09,34,994.58
2022,04,04,09,35,994.62
2022,04,04,09,36,994.62
2022,04,04,09,37,994.65
2022,04,04,09,38,994.68
2022,04,04,09,39,994.68
2022,04,04,09,40,994.75
2022,04,04,09,41,994.82
2022,04,04,09,42,994.89
2022,04,04,09,43,994.85
2022,04,04,09,44,994.89
2022,04,04,09,45,994.89
2022,04,04,09,46,994.92
2022,04,04,09,47,995.06
2022,04,04,09,48,995.12
2022,04,04,09,49,995.12
2022,04,04,09,50,995.12
2022,04,04,09,51,994.99
2022,04,04,09,52,995.12
2022,04,04,09,53,995.06
2022,04,04,09,54,995.23
2022,04,04,09,55,995.36
2022,04,04,09,56,995.29
2022,04,04,09,57,995.26
2022,04,04,09,58,995.23
2022,04,04,09,59,995.29
2022,04,04,10,00,995.36
2022,04,04,10,01,995.19
2022,04,04,10,02,995.22
2022,04,04,10,03,995.09
2022,04,04,10,04,994.85
2022,04,04,10,05,994.82
2022,04,04,10,06,994.75
2022,04,04,10,07,994.78
2022,04,04,10,08,994.58
2022,04,04,10,09,994.68
2022,04,04,10,10,994.62
2022,04,04,10,11,994.58
2022,04,04,10,12,994.75
2022,04,04,10,13,994.72
2022,04,04,10,14,994.82
2022,04,04,10,15,994.82
2022,04,04,10,16,994.82
2022,04,04,10,17,994.82
2022,04,04,10,18,994.79
2022,04,04,10,19,994.85
2022,04,04,10,20,994.85
2022,04,04,10,21,994.75
2022,04,04,10,22,994.68
2022,04,04,10,23,994.68
2022,04,04,10,24,994.82
2022,04,04,10,25,994.82
2022,04,04,10,26,994.72
2022,04,04,10,27,994.72
2022,04,04,10,28,994.72
2022,04,04,10,29,994.72
2022,04,04,10,30,994.72
2022,04,04,10,31,994.68
2022,04,04,10,32,994.65
2022,04,04,10,33,994.65
2022,04,04,10,34,994.72
2022,04,04,10,35,994.75
2022,04,04,10,36,994.75
2022,04,04,10,37,994.75
2022,04,04,10,38,994.79
2022,04,04,10,39,994.82
2022,04,04,10,40,994.89
2022,04,04,10,41,994.92
2022,04,04,10,42,994.96
2022,04,04,10,43,994.99
2022,04,04,10,44,995.16
2022,04,04,10,45,995.26
2022,04,04,10,46,995.26
2022,04,04,10,47,995.40
2022,04,04,10,48,995.43
2022,04,04,10,49,995.43
2022,04,04,10,50,995.53
2022,04,04,10,51,995.63
2022,04,04,10,52,995.60
2022,04,04,10,53,995.80
2022,04,04,10,54,995.70
2022,04,04,10,55,995.60
2022,04,04,10,56,995.63
2022,04,04,10,57,995.53
2022,04,04,10,58,995.53
2022,04,04,10,59,995.56
2022,04,04,11,00,995.53
2022,04,04,11,01,995.43
2022,04,04,11,02,995.46
2022,04,04,11,03,995.46
2022,04,04,11,04,995.43
2022,04,04,11,05,995.46
2022,04,04,11,06,995.46
2022,04,04,11,07,995.56
2022,04,04,11,08,995.46
2022,04,04,11,09,995.56
2022,04,04,11,10,995.46
2022,04,04,11,11,995.36
2022,04,04,11,12,995.46
2022,04,04,11,13,995.53
2022,04,04,11,14,995.60
2022,04,04,11,15,995.67
2022,04,04,11,16,995.80
2022,04,04,11,17,995.73
2022,04,04,11,18,995.80
2022,04,04,11,19,995.73
2022,04,04,11,20,995.77
2022,04,04,11,21,995.84
2022,04,04,11,22,995.90
2022,04,04,11,23,995.94
2022,04,04,11,24,996.01
2022,04,04,11,25,996.07
2022,04,04,11,26,996.11
2022,04,04,11,27,996.04
2022,04,04,11,28,996.01
2022,04,04,11,29,996.11
2022,04,04,11,30,996.17
2022,04,04,11,31,996.04
2022,04,04,11,32,996.04
2022,04,04,11,33,996.07
2022,04,04,11,34,996.11
2022,04,04,11,35,996.24
2022,04,04,11,36,996.17
2022,04,04,11,37,996.24
2022,04,04,11,38,996.14
2022,04,04,11,39,996.17
2022,04,04,11,40,996.21
2022,04,04,11,41,996.28
2022,04,04,11,42,996.21
2022,04,04,11,43,996.11
2022,04,04,11,44,996.15
2022,04,04,11,45,996.31
2022,04,04,11,46,996.34
2022,04,04,11,47,996.38
2022,04,04,11,48,996.17
2022,04,04,11,49,996.11
2022,04,04,11,50,996.21
2022,04,04,11,51,996.31
2022,04,04,11,52,996.28
2022,04,04,11,53,996.24
2022,04,04,11,54,996.31
2022,04,04,11,55,996.25
2022,04,04,11,56,996.48
2022,04,04,11,57,996.41
2022,04,04,11,58,996.51
2022,04,04,11,59,996.41
2022,04,04,12,00,996.61
2022,04,04,12,01,996.51
2022,04,04,12,02,996.48
2022,04,04,12,03,996.61
2022,04,04,12,04,996.55
2022,04,04,12,05,996.55
2022,04,04,12,06,996.34
2022,04,04,12,07,996.48
2022,04,04,12,08,996.45
2022,04,04,12,09,996.38
2022,04,04,12,10,996.41
2022,04,04,12,11,996.51
2022,04,04,12,12,996.45
2022,04,04,12,13,996.55
2022,04,04,12,14,996.55
2022,04,04,12,15,996.55
2022,04,04,12,16,996.58
2022,04,04,12,17,996.61
2022,04,04,12,18,996.48
2022,04,04,12,19,996.55
2022,04,04,12,20,996.45
2022,04,04,12,21,996.55
2022,04,04,12,22,996.55
2022,04,04,12,23,996.55
2022,04,04,12,24,996.58
2022,04,04,12,25,996.61
2022,04,04,12,26,996.58
2022,04,04,12,27,996.61
2022,04,04,12,28,996.68
2022,04,04,12,29,996.61
2022,04,04,12,30,996.72
2022,04,04,12,31,996.72
2022,04,04,12,32,996.85
2022,04,04,12,33,996.75
2022,04,04,12,34,996.85
2022,04,04,12,35,997.24
2022,04,04,12,36,996.85
2022,04,04,12,37,996.89
2022,04,04,12,38,996.82
2022,04,04,12,39,996.61
2022,04,04,12,40,996.61
2022,04,04,12,41,996.65
2022,04,04,12,42,996.61
2022,04,04,12,43,996.58
2022,04,04,12,44,996.51
2022,04,04,12,45,996.48
2022,04,04,12,46,996.58
2022,04,04,12,47,996.68
2022,04,04,12,48,996.78
2022,04,04,12,49,996.89
2022,04,04,12,50,996.85
2022,04,04,12,51,996.82
2022,04,04,12,52,996.82
2022,04,04,12,53,996.78
2022,04,04,12,54,996.85
2022,04,04,12,55,996.95
2022,04,04,12,56,996.89
2022,04,04,12,57,996.95
2022,04,04,12,58,997.05
2022,04,04,12,59,997.02
2022,04,04,13,00,997.12
2022,04,04,13,01,997.09
2022,04,04,13,02,997.02
2022,04,04,13,03,997.09
2022,04,04,13,04,997.16
2022,04,04,13,05,997.16
2022,04,04,13,06,997.29
2022,04,04,13,07,997.33
2022,04,04,13,08,997.29
2022,04,04,13,09,997.39
2022,04,04,13,10,997.36
2022,04,04,13,11,997.36
2022,04,04,13,12,997.29
2022,04,04,13,13,997.26
2022,04,04,13,14,997.22
2022,04,04,13,15,997.33
2022,04,04,13,16,997.39
2022,04,04,13,17,997.46
2022,04,04,13,18,997.29
2022,04,04,13,19,997.46
2022,04,04,13,20,997.36
2022,04,04,13,21,997.46
2022,04,04,13,22,997.43
2022,04,04,13,23,997.50
2022,04,04,13,24,997.46
2022,04,04,13,25,997.39
2022,04,04,13,26,997.46
2022,04,04,13,27,997.46
2022,04,04,13,28,997.36
2022,04,04,13,29,997.36
2022,04,04,13,30,997.46
2022,04,04,13,31,997.43
2022,04,04,13,32,997.43
2022,04,04,13,33,997.32
2022,04,04,13,34,997.12
2022,04,04,13,35,997.16
2022,04,04,13,36,997.19
2022,04,04,13,37,997.02
2022,04,04,13,38,996.99
2022,04,04,13,39,997.02
2022,04,04,13,40,997.19
2022,04,04,13,41,997.43
2022,04,04,13,42,997.39
2022,04,04,13,43,997.33
2022,04,04,13,44,997.43
2022,04,04,13,45,997.50
2022,04,04,13,46,997.39
2022,04,04,13,47,997.46
2022,04,04,13,48,997.46
2022,04,04,13,49,997.43
2022,04,04,13,50,997.59
2022,04,04,13,51,997.56
2022,04,04,13,52,997.60
2022,04,04,13,53,997.66
2022,04,04,13,54,997.63
2022,04,04,13,55,997.63
2022,04,04,13,56,997.97
2022,04,04,13,57,998.10
2022,04,04,13,58,997.77
2022,04,04,13,59,998.07
2022,04,04,14,00,997.70
2022,04,04,14,01,997.96
2022,04,04,14,02,997.70
2022,04,04,14,03,997.83
2022,04,04,14,04,997.70
2022,04,04,14,05,997.63
2022,04,04,14,06,997.51
2022,04,04,14,07,997.50
2022,04,04,14,08,997.53
2022,04,04,14,09,997.46
2022,04,04,14,10,997.43
2022,04,04,14,11,997.56
2022,04,04,14,12,997.56
2022,04,04,14,13,997.63
2022,04,04,14,14,997.56
2022,04,04,14,15,997.77
2022,04,04,14,16,997.66
2022,04,04,14,17,997.73
2022,04,04,14,18,997.94
2022,04,04,14,19,997.87
2022,04,04,14,20,997.97
2022,04,04,14,21,997.83
2022,04,04,14,22,997.97
2022,04,04,14,23,997.94
2022,04,04,14,24,997.97
2022,04,04,14,25,997.94
2022,04,04,14,26,997.83
2022,04,04,14,27,997.97
2022,04,04,14,28,998.04
2022,04,04,14,29,997.80
2022,04,04,14,30,997.87
2022,04,04,14,31,997.83
2022,04,04,14,32,997.97
2022,04,04,14,33,997.94
2022,04,04,14,34,997.80
2022,04,04,14,35,997.80
2022,04,04,14,36,997.70
2022,04,04,14,37,997.60
2022,04,04,14,38,997.60
2022,04,04,14,39,997.56
2022,04,04,14,40,997.53
2022,04,04,14,41,997.76
2022,04,04,14,42,997.73
2022,04,04,14,43,997.87
2022,04,04,14,44,998.04
2022,04,04,14,45,998.07
2022,04,04,14,46,998.07
2022,04,04,14,47,998.07
2022,04,04,14,48,998.34
2022,04,04,14,49,998.34
2022,04,04,14,50,998.31
2022,04,04,14,51,998.21
2022,04,04,14,52,998.24
2022,04,04,14,53,998.38
2022,04,04,14,54,998.41
2022,04,04,14,55,998.48
2022,04,04,14,56,998.24
2022,04,04,14,57,998.31
2022,04,04,14,58,998.41
2022,04,04,14,59,998.31
2022,04,04,15,00,998.34
2022,04,04,15,01,998.41
2022,04,04,15,02,998.27
2022,04,04,15,03,998.38
2022,04,04,15,04,998.34
2022,04,04,15,05,998.44
2022,04,04,15,06,998.34
2022,04,04,15,07,998.51
2022,04,04,15,08,998.38
2022,04,04,15,09,998.34
2022,04,04,15,10,998.31
2022,04,04,15,11,998.24
2022,04,04,15,12,998.38
2022,04,04,15,13,998.31
2022,04,04,15,14,998.34
2022,04,04,15,15,998.21
2022,04,04,15,16,998.17
2022,04,04,15,17,998.24
2022,04,04,15,18,998.21
2022,04,04,15,19,998.24
2022,04,04,15,20,998.38
2022,04,04,15,21,998.58
2022,04,04,15,22,998.58
2022,04,04,15,23,998.68
2022,04,04,15,24,998.54
2022,04,04,15,25,998.58
2022,04,04,15,26,998.65
2022,04,04,15,27,998.61
2022,04,04,15,28,998.61
2022,04,04,15,29,998.61
2022,04,04,15,30,998.58
2022,04,04,15,31,998.51
2022,04,04,15,32,998.75
2022,04,04,15,33,998.71
2022,04,04,15,34,998.82
2022,04,04,15,35,998.82
2022,04,04,15,36,998.88
2022,04,04,15,37,999.12
2022,04,04,15,38,999.02
2022,04,04,15,39,999.09
2022,04,04,15,40,999.05
2022,04,04,15,41,999.15
2022,04,04,15,42,998.99
2022,04,04,15,43,999.05
2022,04,04,15,44,999.05
2022,04,04,15,45,998.88
2022,04,04,15,46,999.05
2022,04,04,15,47,999.02
2022,04,04,15,48,998.95
2022,04,04,15,49,998.99
2022,04,04,15,50,998.95
2022,04,04,15,51,999.05
2022,04,04,15,52,998.95
2022,04,04,15,53,999.02
2022,04,04,15,54,998.95
2022,04,04,15,55,998.95
2022,04,04,15,56,998.95
2022,04,04,15,57,999.05
2022,04,04,15,58,999.02
2022,04,04,15,59,999.05
2022,04,04,16,00,999.29
2022,04,04,16,01,999.32
2022,04,04,16,02,999.39
2022,04,04,16,03,999.29
2022,04,04,16,04,999.36
2022,04,04,16,05,999.43
2022,04,04,16,06,999.53
2022,04,04,16,07,999.56
2022,04,04,16,08,999.70
2022,04,04,16,09,999.66
2022,04,04,16,10,999.73
2022,04,04,16,11,999.73
2022,04,04,16,12,999.76
2022,04,04,16,13,999.80
2022,04,04,16,14,999.76
2022,04,04,16,15,999.83
2022,04,04,16,16,999.70
2022,04,04,16,17,999.73
2022,04,04,16,18,999.59
2022,04,04,16,19,999.66
2022,04,04,16,20,999.73
2022,04,04,16,21,999.80
2022,04,04,16,22,999.87
2022,04,04,16,23,999.87
2022,04,04,16,24,999.90
2022,04,04,16,25,1000.03
2022,04,04,16,26,1000.00
2022,04,04,16,27,1000.17
2022,04,04,16,28,1000.20
2022,04,04,16,29,1000.20
2022,04,04,16,30,1000.17
2022,04,04,16,31,1000.24
2022,04,04,16,32,1000.27
2022,04,04,16,33,1000.31
2022,04,04,16,34,1000.34
2022,04,04,16,35,1000.37